Regional Weather Roundup
Issued by NWS

Home | Current Version | Previous Version | Text Only | Print | Product List | Glossary Off
Versions: 1 2 3 4 5 6 7 8 9 10 11 12 13 14 15 16 17 18 19 20 21 22 23 24 25 26 27 28 29 30 31 32 33 34 35 36 37 38 39 40 41 42 43 44 45 46 47 48 49 50

000
ASUS43 KOAX 010802
RWRNE

WEATHER ROUNDUP FOR NEBRASKA
NATIONAL WEATHER SERVICE OMAHA NE
200 AM CST SUN FEB 01 2015

NOTES: SATELLITE DATA IS BEING USED TO AUGMENT CLOUD COVER ABOVE
       12000 FEET.
       "FAIR" INDICATES FEW OR NO CLOUDS BELOW 12,000 FEET WITH NO
       SIGNIFICANT WEATHER AND/OR OBSTRUCTIONS TO VISIBILITY.

  * THESE STATIONS DO NOT REPORT WEATHER SUCH AS RAIN...SNOW OR FOG.

NEZ001>004-019>022-054>056-010900-
NEBRASKA PANHANDLE

CITY           SKY/WX    TMP DP  RH WIND       PRES   REMARKS
SCOTTSBLUFF    CLOUDY    23  20  88 N9        30.07R WCI  13
ALLIANCE       LGT SNOW  17  14  88 N17       30.05R FOG     WCI   1
CHADRON        LGT SNOW  14  10  84 NE12      30.15R FOG     WCI   0
SIDNEY         LGT SNOW  20  17  88 N20       29.99S FOG     WCI   4
$$

NEZ057>060-069>072-079>082-010900-
SOUTHWEST NEBRASKA

CITY           SKY/WX    TMP DP  RH WIND       PRES   REMARKS
NORTH PLATTE   CLOUDY    16  12  84 N20G32    29.99R FOG     WCI  -1
IMPERIAL       MIX PCPN  19  13  77 N26G33    29.99R WCI   1
MCCOOK         LGT SNOW  22  17  81 N21G31    29.95R WCI   6
$$

NEZ005>010-023>029-035>040-094-010900-
NORTH CENTRAL NEBRASKA

CITY           SKY/WX    TMP DP  RH WIND       PRES   REMARKS
VALENTINE      LGT SNOW   9   4  80 N20G30    30.12S VSB 3/4 WCI -10
BROKEN BOW     LGT SNOW  18  14  84 N29G35    29.95R VSB 1   WCI  -1
ORD            LGT SNOW  18  13  80 N24G36    29.95R VSB 1   WCI   0
$$

NEZ041-046>049-061>064-073>077-083>087-010900-
SOUTH CENTRAL NEBRASKA

CITY           SKY/WX    TMP DP  RH WIND       PRES   REMARKS
GRAND ISLAND   LGT SNOW  26  23  88 N24       29.86S VSB 1   WCI  11
HASTINGS       LGT SNOW  26  23  88 N22G31    29.83R FOG     WCI  12
KEARNEY *      CLOUDY    23  19  86 N25G31    29.88R WCI   7
$$

NEZ011>018-030>034-042>045-010900-
NORTHEAST NEBRASKA

CITY           SKY/WX    TMP DP  RH WIND       PRES   REMARKS
NORFOLK        LGT SNOW  26  24  92 N22G30    29.90R VSB 3/4 WCI  12
TEKAMAH        LGT SNOW  33  32  96 N14       29.86F FOG     WCI  23
$$

NEZ050>053-065>068-078-088>093-010900-
SOUTHEAST NEBRASKA

CITY           SKY/WX    TMP DP  RH WIND       PRES   REMARKS
LINCOLN        LGT SNOW  32  31  96 NE8       29.82S FOG     WCI  25
OMAHA EPPLEY   LGT SNOW  33  32  96 NE3       29.83F VSB 3/4
FALLS CITY     LGT SNOW  32  32 100 E3        29.78F FOG
$$

NEZ044-045-051>053-067-010900-
OMAHA AREA

CITY           SKY/WX    TMP DP  RH WIND       PRES   REMARKS
OMAHA EPPLEY   LGT SNOW  33  32  96 NE3       29.83F VSB 3/4
OFFUTT AFB     LGT SNOW  32  32  98 NE5       29.81F FOG     WCI  28
$$


USA.gov is the U.S. government's official web portal to all federal, state and local government web resources and services.